Zurück zum Katalog

FLOCK 4Q 7

AktivWissenschaftSSO
NORAD 58318·PAYLOAD·🇺🇸 United States

Gestartet Nov 11, 2023 von Vandenberg Space Force Base

Loading…

Nächste Überflüge (nächste 24 Stunden)

TLE

AktuellSource: Space-Track

Epoche: Sep 12, 2026, 05:09 UTC

1 58318U 23174BQ  26255.21460223  .00022684  00000-0  25841-3 0  9997
2 58318  97.3959 350.0129 0004886 169.5544 190.5816 15.62259300159300

Verfolge FLOCK 4Q 7 in Echtzeit mit AllMySat

Download on the App Store